Wind_Speed
26 27 28 29 29 29 29 29 30 30 31 32 33 33 33 33 34 34 34 34 33 32 31 31 30 27 26 26 26 25 26 27 27 29 29 30 31 32 33 35 36 39 39 33 32 34 33 31 30 28 27 28 28 28 31 33 33 34 35 38 43 47 49
27 27 28 29 29 29 29 29 30 30 31 32 33 33 33 33 34 33 33 33 33 32 31 31 30 29 27 27 26 25 27 27 28 29 30 29 31 32 34 36 36 37 38 36 33 34 35 34 34 32 29 28 30 30 31 33 35 35 35 37 40 45 48
26 27 28 29 29 29 29 29 29 30 30 31 32 33 33 33 33 33 33 33 33 32 31 31 30 29 28 27 26 26 27 28 28 29 30 30 31 33 35 37 37 36 37 36 35 35 36 36 36 36 35 32 30 31 32 33 36 37 36 37 39 42 46
26 27 28 28 29 29 29 29 29 29 30 31 32 32 32 33 33 33 33 33 33 32 32 31 30 29 29 28 27 26 26 28 29 29 29 30 31 34 36 37 36 35 36 37 38 36 36 38 38 38 39 38 33 30 32 34 36 38 38 38 39 41 44
26 27 27 28 29 29 29 29 29 29 29 30 31 32 32 33 32 32 33 33 33 32 32 32 31 30 29 28 27 27 27 28 29 29 29 29 31 33 35 35 35 35 36 39 40 39 38 39 40 41 41 41 38 32 31 33 35 38 40 39 39 41 43
27 27 27 27 28 28 28 29 28 28 29 30 31 32 32 32 32 32 32 32 32 32 31 31 31 30 29 29 28 27 27 27 28 29 29 29 30 32 33 34 35 36 37 38 39 40 40 40 41 43 44 42 40 36 31 31 33 36 39 40 40 40 42
28 28 28 27 27 27 27 28 28 28 29 29 31 31 32 32 32 31 31 31 32 31 30 30 30 29 29 29 29 28 27 27 28 28 28 29 30 32 34 35 36 37 38 37 38 40 40 40 42 44 45 43 40 37 33 32 33 34 36 38 40 40 41
28 29 28 27 26 25 25 26 27 28 28 29 30 31 31 31 31 31 30 30 30 30 29 29 29 28 28 28 29 28 27 27 27 28 28 29 31 33 35 37 37 39 39 37 38 39 39 40 42 44 45 44 39 35 32 31 32 33 34 36 39 40 40
29 29 28 27 26 24 24 24 26 27 27 28 30 31 31 31 31 31 30 29 29 28 29 29 28 28 28 28 29 29 28 26 26 28 28 29 31 34 36 36 37 40 40 38 37 38 38 40 42 43 45 44 39 33 30 30 30 31 31 34 37 39 40
29 30 28 27 26 25 24 24 25 27 27 28 29 30 30 30 31 30 30 29 28 27 28 28 27 27 28 28 29 29 28 26 25 25 27 28 31 34 36 37 39 40 38 36 36 36 37 39 41 42 45 44 37 31 29 29 28 28 28 31 35 37 38
29 29 28 27 26 25 24 24 25 26 27 28 29 30 30 30 30 30 30 29 28 27 27 27 27 27 28 28 29 29 28 26 24 24 25 27 30 33 35 37 38 38 36 34 34 34 35 38 40 42 44 44 38 31 29 29 27 26 26 30 34 36 36
29 29 28 28 27 25 24 24 25 26 26 27 29 30 29 29 30 30 29 29 29 28 27 27 26 26 27 29 29 30 29 26 23 22 23 26 30 31 33 34 34 35 34 33 33 33 33 36 39 41 42 43 39 32 29 28 27 25 24 27 31 33 34
29 29 29 29 28 25 24 24 25 25 25 26 28 29 29 28 29 29 29 29 29 28 27 27 27 26 27 28 30 30 30 28 24 21 21 25 29 31 30 29 29 31 31 31 31 31 32 34 38 40 40 40 39 33 29 27 25 24 23 24 28 31 32
29 29 30 31 29 27 26 25 25 24 24 25 27 28 28 27 28 28 28 28 28 27 27 27 27 26 26 28 30 31 31 29 25 21 20 23 28 29 28 27 27 27 28 29 29 30 32 34 37 40 39 38 39 35 29 26 24 23 23 24 27 30 31
29 29 31 31 29 28 27 26 25 24 23 24 26 27 27 26 26 27 27 27 27 27 27 27 27 27 27 28 29 30 31 31 27 22 19 22 27 27 26 25 25 25 26 27 28 30 33 34 37 41 40 39 39 35 29 26 24 23 23 23 26 29 29
31 31 31 31 29 28 28 27 26 23 22 23 24 26 26 25 25 26 26 26 27 27 27 27 28 28 28 28 29 30 31 32 30 23 19 22 26 26 25 23 23 25 26 26 26 28 32 35 38 41 41 40 40 35 28 26 25 23 22 21 23 26 27
32 32 31 30 28 28 29 28 26 24 21 21 23 24 24 24 25 25 25 25 26 26 27 27 28 28 28 29 30 30 31 32 31 25 20 22 25 25 24 21 21 22 24 25 26 29 32 35 38 39 39 38 39 34 27 24 22 20 21 20 20 22 24
32 32 32 30 27 27 28 27 27 25 21 20 21 22 22 23 24 24 25 25 25 26 26 26 28 28 28 29 30 30 31 32 32 26 20 21 24 24 22 21 20 20 20 22 27 30 32 35 37 38 37 36 36 32 25 21 18 16 18 19 18 20 23
34 34 34 31 27 26 27 27 26 25 22 19 20 21 20 21 23 23 24 24 24 25 26 26 26 27 28 29 30 30 30 32 32 28 21 21 24 23 21 20 20 19 18 21 26 29 31 33 35 37 36 35 34 30 24 19 16 14 15 17 18 21 24
36 36 36 33 28 26 26 26 26 25 22 20 19 19 19 20 22 23 23 23 23 24 24 25 25 26 27 28 29 29 29 31 31 28 22 20 22 23 21 20 20 20 20 23 27 30 32 33 34 36 36 34 32 27 21 17 15 13 13 13 16 21 24
39 39 39 36 31 26 24 25 25 24 23 21 19 18 18 18 21 23 23 22 23 23 23 24 24 25 26 27 28 28 28 29 30 28 23 20 21 22 22 20 20 21 22 25 28 31 32 32 33 35 35 35 32 26 18 15 13 12 10 9 13 18 21
40 40 40 39 33 27 24 24 25 24 23 21 19 18 16 17 19 22 22 22 22 22 22 23 23 24 24 25 26 27 26 26 28 27 23 19 19 21 21 21 21 21 22 25 28 29 31 31 31 33 35 34 33 26 17 12 11 9 5 4 11 17 20
39 39 40 40 35 29 25 24 24 24 23 22 20 18 16 15 18 21 22 21 21 21 21 22 22 23 23 24 25 25 25 24 25 26 23 19 18 19 19 20 20 21 22 24 26 27 29 29 29 31 33 33 32 28 18 10 10 10 9 11 14 16 20
35 36 38 39 37 31 26 23 23 23 23 22 20 18 15 14 16 19 20 20 20 20 20 21 22 21 21 22 23 24 24 24 24 25 24 20 17 17 17 18 19 20 21 22 24 25 26 26 27 29 31 31 31 30 23 12 9 10 12 14 16 18 21
32 33 34 37 37 32 26 24 23 23 23 22 21 18 15 14 14 16 18 19 18 19 19 19 21 21 20 21 22 23 23 23 23 24 23 21 18 16 16 17 17 18 19 20 22 23 24 25 25 27 30 31 30 30 28 19 11 8 7 8 11 17 22
31 30 30 33 35 32 27 24 23 23 22 22 21 18 15 14 14 15 16 17 17 17 18 19 20 20 19 20 21 21 21 21 23 23 22 21 19 16 15 16 16 16 17 18 20 22 22 23 24 25 27 29 28 29 29 26 19 11 7 6 8 15 20
31 29 28 29 31 29 27 25 24 22 22 22 22 19 16 14 13 13 15 16 16 16 17 18 19 19 18 19 19 19 20 22 24 24 22 21 20 18 16 15 14 14 15 16 18 19 20 21 23 23 23 24 25 26 27 27 25 19 12 8 9 13 16
30 28 26 27 29 29 29 28 24 21 21 23 22 19 16 14 13 13 14 15 14 15 15 16 17 17 17 18 18 19 21 23 24 24 23 21 20 19 17 16 14 14 14 15 16 17 18 19 20 20 21 20 21 23 23 24 25 24 20 15 11 10 12
30 27 26 27 29 31 31 29 24 21 21 23 22 20 17 14 13 12 13 13 13 13 14 15 16 16 16 17 18 19 21 23 24 24 23 22 20 19 17 16 15 13 12 12 13 14 15 16 17 18 19 19 18 19 20 20 20 20 20 17 14 12 9
29 26 25 26 28 30 31 29 25 22 22 22 21 20 17 14 13 12 11 12 12 12 12 14 14 14 14 16 17 18 19 21 22 22 22 22 21 18 17 16 14 12 11 10 11 11 12 14 15 16 16 17 16 16 17 17 17 15 14 13 11 10 10
28 26 25 25 25 27 29 27 25 23 22 22 21 20 17 15 13 11 10 10 10 10 11 12 12 12 12 14 15 16 17 19 20 21 21 21 21 19 17 16 14 13 12 11 10 11 11 12 13 14 14 15 15 15 15 16 15 13 12 11 10 9 8
27 25 24 24 23 24 25 25 24 23 23 23 22 20 17 15 13 11 10 9 9 9 10 10 10 10 10 11 13 14 15 17 18 19 19 19 20 20 18 17 16 15 15 13 12 11 11 12 12 13 13 13 14 14 14 14 14 11 10 10 9 9 8
25 23 22 22 21 21 22 24 25 24 24 24 22 20 17 15 13 11 9 8 8 8 9 9 9 9 8 9 11 12 13 15 16 17 17 17 18 19 20 20 20 20 19 17 15 13 12 12 12 13 13 13 12 12 12 12 12 12 10 8 7 7 7
22 21 20 18 18 20 21 24 26 26 25 25 23 20 17 15 13 10 9 7 7 7 8 8 8 8 7 8 9 10 11 13 15 16 16 17 18 19 21 22 23 23 23 21 20 19 17 15 14 13 12 12 12 12 11 11 11 10 9 7 6 6 6
20 20 18 15 15 18 21 25 27 27 27 25 23 20 17 15 13 11 8 7 6 6 7 8 8 8 6 6 7 8 10 12 14 15 16 16 17 18 19 20 21 22 22 23 22 22 21 20 18 16 13 12 12 11 10 10 9 9 8 7 6 4 4
20 19 17 15 15 17 21 25 28 29 28 26 23 20 17 15 13 11 9 7 6 6 7 8 8 8 6 5 6 7 9 10 12 14 14 15 16 16 17 17 18 19 20 21 21 21 22 22 21 19 17 16 15 13 11 10 9 8 7 7 6 5 3
Wind_Direction
310 307 307 310 314 317 316 316 316 318 321 323 324 327 330 332 333 333 334 335 334 332 329 326 320 311 302 300 302 305 308 309 311 313 316 320 324 327 328 325 324 324 327 332 334 333 335 336 331 325 314 301 291 280 272 267 264 261 255 250 246 242 240
309 307 306 309 313 316 317 315 316 317 319 321 323 326 329 331 332 333 333 334 333 332 330 328 323 314 303 298 301 305 306 308 309 310 314 318 321 325 327 324 322 322 322 326 331 330 331 332 330 329 322 306 294 285 276 268 263 260 256 252 247 242 239
308 306 305 307 311 315 316 315 315 316 318 320 322 325 328 330 332 332 333 333 333 332 330 329 325 317 306 299 301 305 305 307 309 309 312 316 320 324 325 323 320 318 319 325 330 329 328 329 328 328 326 317 302 287 279 271 263 259 256 252 249 244 239
306 305 304 306 309 313 315 314 313 315 317 319 321 324 327 329 331 332 333 333 333 332 330 329 328 321 313 304 301 303 305 307 308 309 310 315 320 322 322 321 318 317 321 327 330 329 327 327 328 327 326 322 312 293 280 274 266 258 254 250 248 244 239
303 303 303 304 307 311 313 313 313 314 318 319 320 323 325 327 330 331 332 333 332 332 331 330 329 325 318 308 302 302 306 308 308 309 311 315 318 318 318 318 318 322 327 328 327 327 326 326 328 329 328 323 316 301 282 275 270 261 254 250 246 243 240
300 300 301 301 305 310 312 312 312 314 318 320 320 322 324 326 329 331 332 332 331 331 331 329 327 326 322 314 308 304 305 308 309 310 311 313 314 315 315 317 320 324 327 326 323 324 325 326 329 331 330 324 316 306 289 277 272 265 256 250 245 241 239
297 298 298 299 303 308 310 311 312 313 317 319 320 321 323 325 328 330 331 331 331 331 330 328 326 326 325 320 314 309 305 307 310 310 311 312 313 315 316 317 320 323 324 322 321 322 324 327 329 331 331 325 317 308 295 283 276 268 258 251 245 241 237
295 296 297 298 300 304 308 309 310 312 314 317 318 320 322 325 326 329 331 331 331 331 328 327 327 326 326 324 320 314 307 305 308 311 313 315 316 317 316 315 318 320 320 319 320 323 325 328 331 332 331 326 319 310 299 288 281 273 261 250 244 240 235
294 295 295 296 298 301 305 307 309 310 312 314 316 318 321 324 325 327 330 330 331 330 328 328 329 328 328 327 325 320 313 307 309 314 317 318 317 315 314 315 317 317 316 316 320 324 327 330 332 332 331 328 322 313 303 292 284 278 267 253 244 239 234
291 292 292 295 298 300 303 305 307 308 309 311 314 316 320 323 324 326 329 330 331 330 329 330 330 329 329 330 328 325 319 312 310 314 318 318 316 314 313 314 313 312 313 316 320 325 329 331 333 333 332 330 323 312 304 296 286 280 271 257 245 237 233
288 289 291 294 296 299 302 304 306 306 307 309 310 314 318 321 323 325 327 329 331 331 331 331 332 332 332 332 331 328 323 316 310 311 316 316 313 312 310 309 308 309 312 315 319 327 332 333 333 333 332 330 324 312 305 298 288 279 270 258 245 236 230
286 287 289 290 292 296 300 302 303 304 304 306 308 311 317 320 321 324 327 329 331 332 332 333 334 335 335 334 333 330 327 320 311 308 313 314 310 307 305 305 307 308 311 314 319 328 334 334 333 333 331 330 324 312 305 300 288 278 270 260 249 237 228
286 286 287 288 289 293 296 296 298 301 301 302 305 309 315 319 320 323 326 329 331 332 333 334 336 339 338 336 335 333 330 325 315 307 310 311 306 302 302 304 307 309 312 315 319 328 335 335 335 334 331 329 324 313 304 300 290 277 267 256 247 238 229
287 287 287 287 288 292 293 292 293 298 298 299 303 308 313 318 319 322 326 328 329 331 333 335 338 340 341 339 337 334 332 329 321 310 309 309 304 302 304 305 306 309 311 313 319 329 337 338 337 336 333 330 325 315 303 298 290 276 264 253 244 237 230
289 289 288 288 289 292 293 291 291 294 296 297 300 306 312 316 318 321 325 327 328 330 333 336 339 341 343 342 338 336 334 332 327 318 312 311 307 304 307 308 309 311 310 313 322 332 338 341 340 337 335 333 328 318 304 296 289 275 261 252 244 237 230
289 289 289 290 292 293 292 291 290 291 294 295 299 305 311 315 318 320 323 325 327 330 333 336 340 342 344 343 340 339 338 335 332 327 320 315 310 307 308 311 315 316 313 316 327 333 337 341 340 337 336 336 331 322 306 294 290 278 260 249 243 235 228
286 288 289 291 294 295 293 292 290 289 291 294 297 303 310 314 317 319 322 324 326 330 334 337 340 342 344 343 341 342 342 339 335 331 325 318 312 308 309 313 317 318 317 322 331 335 338 341 339 337 339 338 333 325 308 294 296 287 262 248 240 230 222
285 287 288 289 293 294 293 292 291 288 289 293 295 300 308 313 315 317 320 323 326 329 334 338 341 342 344 344 343 344 345 342 338 334 328 319 313 310 312 317 318 315 320 331 337 337 338 339 337 339 343 341 336 330 314 298 300 290 264 247 235 223 215
286 287 287 288 291 292 292 292 291 289 288 291 293 298 306 312 314 315 318 322 325 329 334 339 341 342 343 343 343 345 347 345 340 336 330 320 315 314 318 324 323 317 321 336 341 339 338 338 339 342 347 345 340 336 326 311 302 287 265 246 230 222 214
285 286 287 289 289 291 292 292 291 289 288 288 291 295 303 311 314 315 317 321 325 329 334 339 341 341 343 343 343 345 348 347 341 336 330 321 316 318 322 329 332 330 332 339 343 342 340 341 343 346 350 352 348 343 339 331 315 294 273 246 228 225 217
286 287 288 289 289 290 290 290 292 291 289 288 289 292 301 309 312 314 316 320 324 328 333 339 341 340 342 344 344 346 349 347 342 336 330 321 317 321 327 334 338 339 340 342 343 343 342 343 346 349 352 356 357 351 347 349 343 321 294 252 225 223 212
287 288 288 288 288 288 288 288 290 291 290 289 289 290 298 307 311 313 315 319 323 327 333 339 340 338 342 344 345 347 349 347 342 339 333 323 318 323 330 337 342 343 343 342 343 344 344 345 348 351 353 358 2 0 358 8 15 1 325 227 202 204 194
283 285 286 287 286 286 286 285 287 289 290 290 290 289 294 304 309 311 314 317 321 326 332 339 338 337 341 345 346 348 348 346 344 343 339 329 319 323 331 337 342 345 344 343 345 345 346 348 351 353 355 359 6 9 13 32 56 67 95 124 142 160 168
280 281 283 285 284 283 283 282 283 286 288 290 289 287 291 300 306 309 313 316 319 325 333 337 336 336 341 346 348 349 348 346 346 346 344 337 324 322 331 338 343 346 345 345 346 346 348 351 353 355 358 3 9 15 23 43 76 85 97 111 121 134 148
281 279 279 280 281 281 280 279 279 282 285 288 287 285 286 295 302 307 312 313 316 325 333 336 335 336 341 348 351 350 347 348 350 348 347 344 334 326 332 340 344 347 346 346 348 347 349 354 357 358 2 5 9 15 25 39 63 84 89 100 119 134 144
283 279 276 277 278 278 276 274 275 278 282 285 285 282 283 289 298 305 309 311 316 325 331 335 335 335 342 351 353 348 347 352 356 352 349 348 344 338 338 343 347 347 347 349 350 348 350 356 0 2 5 7 9 13 20 30 45 67 90 105 127 143 149
283 279 275 274 274 272 269 268 269 273 279 281 282 280 279 284 294 303 306 308 315 325 331 334 334 334 344 354 350 344 350 359 2 358 354 351 350 348 345 346 349 350 351 354 353 350 351 356 1 3 6 9 13 15 16 19 28 42 61 87 122 148 160
287 282 276 270 267 263 261 263 266 269 272 276 280 278 275 279 288 297 303 307 314 324 331 333 332 335 346 351 346 347 358 6 6 3 359 355 354 354 352 350 352 355 357 359 356 353 353 355 357 2 6 9 15 20 21 18 19 23 30 44 73 118 154
291 288 281 271 265 261 259 260 261 261 264 270 275 275 272 275 283 292 299 305 313 323 329 330 331 336 345 348 348 355 5 10 9 6 3 1 360 359 357 355 357 359 359 360 359 356 354 354 355 359 4 8 13 20 26 27 25 22 19 24 40 62 89
292 291 285 277 269 263 260 259 256 254 258 265 270 270 268 270 277 287 295 303 311 321 327 328 330 336 343 347 353 3 11 15 13 9 7 7 7 5 2 1 2 3 2 2 2 0 357 356 356 357 0 5 10 17 23 28 32 35 32 30 39 53 60
292 291 289 284 275 265 261 257 251 250 255 261 265 267 265 265 272 282 291 300 309 317 322 326 328 332 340 350 359 8 15 19 18 14 11 12 13 13 12 11 12 13 13 10 7 5 2 358 356 356 359 3 7 12 18 22 26 35 45 49 54 64 68
289 290 290 287 277 267 260 252 245 244 251 257 261 264 262 261 267 276 284 294 304 311 316 320 322 325 337 353 5 12 18 22 21 19 17 19 21 22 23 25 26 27 26 22 15 11 8 3 358 357 359 2 4 7 12 16 19 27 42 53 58 66 74
286 288 289 286 277 266 255 244 237 240 246 251 256 259 259 258 262 269 277 286 294 302 308 312 313 317 334 356 8 15 19 22 24 23 21 23 26 28 29 33 36 37 36 33 29 25 19 13 5 0 358 358 1 4 8 11 15 21 30 41 56 70 78
287 287 288 285 276 264 251 237 231 234 241 247 252 255 255 255 257 262 269 276 283 292 300 303 304 310 329 354 8 15 18 20 24 25 22 24 29 31 32 35 39 40 39 37 37 35 31 26 20 11 3 359 357 358 2 5 10 15 21 29 52 80 90
291 289 289 284 272 258 245 233 228 230 236 242 248 252 251 250 252 256 260 265 272 281 290 294 295 300 318 346 3 13 16 18 22 25 23 24 29 33 34 34 36 38 38 37 37 37 36 33 29 24 18 13 6 360 357 357 2 8 15 22 35 59 89
294 292 289 283 269 253 239 230 226 227 232 238 243 247 247 245 247 249 251 254 258 266 277 284 284 288 303 331 354 8 15 17 20 23 23 22 26 32 32 30 31 34 34 33 33 35 35 34 32 30 29 25 18 11 5 0 360 2 7 15 24 33 54
Height
2898 2897 2896 2894 2892 2890 2889 2886 2885 2883 2880 2877 2874 2870 2866 2862 2858 2854 2850 2847 2843 2840 2837 2834 2831 2829 2827 2824 2822 2820 2818 2816 2813 2811 2809 2806 2802 2799 2796 2792 2789 2784 2780 2780 2779 2775 2772 2769 2766 2763 2762 2759 2758 2757 2756 2755 2755 2756 2757 2758 2759 2762 2765
2895 2893 2892 2890 2888 2886 2885 2883 2881 2879 2876 2874 2871 2867 2864 2860 2856 2852 2848 2844 2841 2838 2834 2831 2828 2826 2824 2821 2819 2817 2815 2813 2811 2808 2805 2803 2799 2796 2793 2790 2787 2783 2778 2776 2776 2773 2769 2766 2763 2760 2758 2756 2753 2752 2751 2751 2750 2751 2752 2753 2755 2757 2760
2891 2889 2888 2886 2885 2883 2881 2879 2877 2875 2873 2871 2868 2864 2861 2857 2854 2850 2846 2842 2839 2835 2832 2829 2826 2823 2821 2818 2816 2814 2812 2810 2808 2805 2802 2800 2796 2792 2790 2788 2784 2781 2777 2773 2771 2770 2766 2763 2760 2756 2754 2752 2749 2747 2746 2745 2745 2745 2746 2748 2749 2751 2754
2887 2885 2884 2882 2881 2879 2877 2876 2874 2872 2870 2867 2865 2862 2858 2855 2851 2847 2843 2840 2836 2833 2830 2827 2824 2820 2817 2815 2813 2811 2809 2807 2805 2802 2800 2797 2794 2790 2787 2785 2782 2779 2774 2769 2767 2766 2763 2760 2756 2753 2749 2746 2744 2742 2740 2739 2738 2739 2740 2742 2744 2745 2749
2883 2881 2880 2878 2877 2875 2874 2872 2871 2869 2866 2864 2862 2859 2856 2852 2849 2845 2841 2837 2834 2830 2827 2824 2821 2818 2814 2811 2809 2808 2806 2804 2801 2799 2797 2794 2791 2788 2785 2782 2779 2775 2770 2766 2763 2762 2760 2756 2752 2748 2745 2741 2738 2735 2734 2732 2732 2732 2732 2735 2737 2740 2742
2880 2878 2876 2874 2873 2871 2870 2869 2867 2865 2863 2861 2858 2856 2853 2850 2846 2843 2839 2835 2832 2828 2824 2821 2818 2815 2812 2809 2806 2804 2802 2800 2798 2796 2793 2791 2788 2785 2782 2779 2776 2772 2768 2765 2761 2759 2756 2752 2748 2743 2740 2736 2732 2729 2728 2727 2725 2725 2726 2727 2730 2733 2736
2876 2874 2872 2870 2869 2867 2866 2865 2863 2861 2859 2857 2855 2853 2850 2847 2844 2840 2837 2833 2830 2826 2822 2819 2816 2813 2810 2806 2803 2801 2799 2797 2795 2793 2790 2788 2785 2782 2778 2775 2772 2769 2766 2763 2760 2757 2753 2749 2744 2740 2735 2731 2728 2724 2722 2721 2719 2719 2719 2720 2723 2727 2730
2872 2871 2869 2867 2865 2863 2862 2861 2859 2857 2856 2854 2852 2850 2847 2845 2841 2838 2835 2832 2828 2824 2821 2818 2814 2811 2807 2804 2800 2798 2796 2794 2792 2789 2787 2784 2781 2778 2776 2773 2770 2767 2764 2761 2757 2754 2750 2745 2740 2736 2731 2727 2722 2719 2717 2715 2714 2713 2713 2714 2716 2719 2723
2868 2867 2865 2863 2862 2860 2858 2857 2855 2854 2852 2850 2848 2846 2844 2842 2839 2836 2833 2830 2826 2823 2819 2815 2812 2808 2805 2801 2798 2795 2793 2791 2788 2785 2783 2781 2778 2776 2773 2770 2767 2764 2761 2758 2755 2751 2747 2741 2737 2732 2727 2722 2718 2714 2711 2710 2709 2707 2707 2708 2709 2712 2717
2864 2863 2862 2860 2858 2856 2855 2853 2851 2850 2848 2847 2844 2843 2841 2838 2836 2833 2830 2827 2824 2821 2817 2813 2810 2806 2802 2799 2796 2793 2790 2788 2786 2783 2781 2778 2776 2773 2770 2767 2764 2762 2759 2755 2752 2749 2744 2738 2733 2729 2724 2718 2714 2710 2707 2705 2704 2703 2703 2703 2704 2707 2712
2860 2859 2858 2856 2855 2853 2851 2850 2848 2846 2845 2843 2841 2839 2838 2835 2833 2830 2827 2824 2821 2818 2815 2811 2808 2804 2800 2796 2793 2790 2787 2785 2783 2781 2779 2777 2774 2772 2769 2765 2762 2759 2756 2753 2749 2746 2741 2735 2730 2726 2720 2715 2710 2706 2703 2701 2699 2698 2698 2698 2699 2702 2707
2855 2854 2854 2852 2850 2849 2848 2846 2844 2842 2841 2840 2838 2836 2834 2832 2829 2827 2824 2821 2818 2815 2812 2809 2805 2801 2797 2794 2791 2788 2785 2783 2781 2780 2777 2775 2773 2771 2768 2765 2760 2757 2754 2750 2747 2743 2739 2733 2727 2723 2718 2712 2707 2703 2699 2697 2695 2694 2694 2694 2695 2698 2703
2851 2850 2849 2848 2846 2845 2843 2842 2840 2838 2837 2836 2835 2833 2830 2828 2826 2824 2821 2818 2815 2812 2809 2806 2803 2800 2796 2792 2788 2785 2783 2780 2779 2778 2775 2773 2771 2769 2766 2763 2759 2755 2752 2749 2745 2741 2736 2731 2725 2720 2715 2710 2704 2699 2696 2693 2692 2691 2690 2690 2691 2694 2699
2846 2846 2845 2844 2842 2840 2839 2838 2836 2834 2834 2833 2831 2830 2827 2825 2823 2821 2818 2815 2813 2810 2807 2803 2800 2797 2794 2790 2787 2783 2780 2778 2776 2775 2773 2771 2769 2767 2764 2760 2757 2754 2751 2747 2743 2738 2732 2728 2722 2717 2713 2707 2701 2696 2693 2690 2688 2688 2687 2687 2688 2690 2694
2841 2841 2840 2839 2838 2837 2835 2834 2832 2831 2830 2829 2828 2827 2825 2822 2820 2818 2815 2813 2810 2807 2804 2801 2798 2795 2791 2788 2785 2782 2778 2775 2773 2772 2770 2768 2766 2764 2761 2758 2755 2751 2748 2745 2740 2734 2729 2724 2719 2714 2709 2704 2698 2693 2690 2687 2685 2684 2684 2684 2685 2687 2691
2837 2836 2836 2835 2834 2833 2831 2830 2829 2827 2826 2825 2824 2824 2822 2820 2817 2815 2813 2810 2808 2805 2801 2798 2795 2792 2789 2786 2783 2780 2776 2772 2770 2768 2766 2764 2763 2761 2758 2756 2752 2748 2745 2742 2737 2733 2727 2722 2717 2712 2707 2701 2696 2691 2687 2684 2682 2681 2681 2681 2682 2685 2689
2832 2832 2831 2830 2830 2829 2828 2826 2825 2824 2823 2822 2821 2820 2819 2817 2815 2813 2810 2808 2805 2802 2799 2795 2792 2789 2787 2784 2781 2777 2774 2770 2767 2765 2763 2761 2760 2758 2756 2753 2751 2747 2743 2739 2735 2730 2726 2720 2716 2712 2706 2700 2694 2688 2684 2681 2680 2679 2679 2679 2680 2683 2688
2828 2827 2827 2826 2826 2825 2824 2823 2821 2820 2819 2818 2818 2817 2816 2814 2812 2810 2808 2805 2803 2800 2797 2793 2790 2787 2784 2781 2778 2775 2771 2768 2765 2762 2761 2759 2758 2756 2753 2750 2748 2746 2742 2738 2734 2729 2725 2720 2715 2711 2705 2699 2693 2687 2682 2679 2678 2678 2677 2678 2679 2682 2685
2823 2823 2822 2822 2821 2821 2820 2819 2818 2817 2816 2815 2814 2814 2813 2812 2810 2808 2806 2803 2801 2798 2795 2791 2788 2785 2782 2779 2776 2773 2769 2766 2763 2760 2759 2757 2755 2753 2751 2748 2745 2742 2739 2736 2732 2729 2724 2720 2715 2710 2704 2699 2692 2686 2681 2678 2676 2676 2675 2676 2679 2681 2683
2819 2819 2818 2818 2817 2817 2816 2815 2814 2813 2812 2811 2810 2810 2809 2808 2807 2806 2803 2801 2799 2796 2793 2790 2787 2784 2781 2777 2774 2771 2767 2764 2761 2758 2757 2755 2753 2751 2748 2745 2742 2739 2735 2732 2730 2727 2723 2718 2714 2709 2704 2698 2692 2686 2681 2678 2676 2674 2674 2675 2677 2680 2683
2815 2815 2814 2813 2813 2813 2813 2812 2811 2810 2809 2808 2807 2806 2806 2805 2804 2803 2801 2799 2796 2794 2791 2788 2785 2782 2779 2776 2773 2770 2766 2763 2761 2758 2755 2754 2751 2749 2746 2743 2741 2737 2734 2731 2728 2726 2722 2718 2714 2709 2704 2698 2693 2687 2682 2679 2676 2674 2674 2674 2676 2679 2682
2811 2811 2810 2809 2809 2809 2809 2808 2807 2807 2806 2805 2804 2803 2802 2801 2801 2800 2799 2797 2794 2791 2789 2786 2783 2781 2778 2775 2772 2769 2765 2763 2761 2757 2754 2752 2750 2748 2745 2742 2739 2736 2734 2731 2728 2725 2722 2718 2714 2709 2704 2699 2694 2689 2684 2681 2678 2676 2675 2674 2676 2679 2682
2805 2806 2805 2804 2804 2805 2805 2805 2804 2803 2802 2801 2801 2800 2799 2798 2798 2798 2797 2795 2792 2789 2787 2784 2782 2780 2777 2773 2771 2768 2765 2763 2760 2757 2754 2751 2749 2747 2744 2742 2739 2736 2733 2731 2727 2724 2722 2718 2715 2710 2706 2701 2696 2691 2686 2683 2682 2680 2679 2678 2678 2681 2683
2800 2800 2800 2800 2800 2800 2800 2801 2800 2800 2799 2798 2797 2797 2796 2795 2795 2794 2794 2792 2790 2787 2785 2782 2781 2778 2775 2772 2770 2767 2764 2762 2760 2756 2753 2750 2748 2746 2744 2741 2738 2736 2733 2730 2727 2725 2722 2719 2716 2712 2707 2703 2699 2694 2690 2686 2685 2685 2684 2683 2683 2684 2686
2793 2794 2795 2795 2795 2796 2796 2796 2796 2796 2796 2795 2794 2794 2793 2793 2792 2791 2791 2790 2788 2785 2783 2781 2779 2777 2774 2771 2768 2766 2764 2761 2759 2756 2753 2750 2747 2745 2743 2740 2738 2735 2733 2731 2728 2725 2723 2720 2717 2713 2709 2705 2701 2698 2694 2691 2689 2689 2688 2688 2689 2690 2691
2788 2788 2789 2790 2791 2791 2792 2792 2793 2793 2792 2792 2791 2791 2790 2790 2789 2788 2788 2787 2785 2783 2780 2779 2777 2775 2773 2770 2767 2766 2764 2761 2758 2755 2753 2750 2747 2744 2741 2739 2737 2735 2733 2731 2728 2725 2723 2720 2718 2715 2711 2708 2704 2701 2698 2695 2694 2693 2692 2692 2693 2694 2695
2783 2783 2783 2785 2786 2787 2787 2788 2789 2789 2789 2788 2788 2788 2787 2787 2786 2785 2785 2784 2783 2780 2778 2777 2776 2774 2771 2768 2767 2766 2763 2759 2756 2755 2752 2749 2746 2743 2740 2738 2737 2735 2733 2731 2728 2726 2724 2721 2719 2717 2715 2712 2708 2705 2702 2699 2697 2696 2696 2696 2696 2697 2698
2778 2778 2778 2779 2780 2781 2782 2783 2785 2786 2785 2785 2784 2784 2784 2784 2783 2783 2782 2782 2780 2778 2777 2775 2774 2773 2770 2768 2766 2765 2761 2757 2755 2754 2752 2749 2746 2742 2740 2738 2736 2735 2733 2731 2729 2727 2725 2723 2721 2719 2717 2715 2712 2709 2706 2703 2700 2698 2698 2698 2698 2699 2700
2774 2773 2773 2774 2774 2775 2776 2778 2781 2782 2781 2781 2781 2781 2781 2781 2781 2780 2780 2779 2778 2776 2775 2774 2773 2771 2769 2767 2765 2762 2759 2756 2755 2754 2752 2749 2746 2743 2740 2738 2736 2735 2733 2732 2730 2729 2727 2725 2723 2720 2718 2716 2714 2712 2711 2709 2706 2704 2702 2701 2701 2701 2702
2770 2769 2768 2768 2769 2770 2772 2774 2776 2777 2777 2778 2778 2778 2778 2778 2778 2778 2777 2776 2775 2774 2773 2772 2772 2770 2768 2766 2763 2761 2759 2756 2755 2754 2753 2750 2746 2743 2741 2739 2737 2735 2734 2732 2731 2730 2728 2726 2724 2722 2720 2718 2716 2714 2713 2712 2711 2710 2708 2706 2705 2705 2704
2766 2765 2764 2763 2764 2766 2767 2769 2771 2773 2774 2774 2774 2774 2775 2775 2775 2775 2775 2774 2773 2772 2772 2771 2771 2769 2767 2765 2763 2761 2759 2757 2756 2755 2753 2751 2748 2745 2742 2740 2738 2736 2734 2733 2732 2730 2729 2727 2726 2724 2722 2719 2718 2716 2715 2714 2713 2712 2712 2711 2709 2708 2708
2761 2760 2759 2759 2760 2761 2763 2765 2767 2769 2770 2770 2771 2771 2772 2773 2773 2773 2772 2772 2771 2771 2770 2770 2770 2769 2767 2764 2763 2761 2760 2758 2756 2756 2755 2752 2750 2747 2744 2742 2739 2737 2735 2734 2732 2731 2729 2728 2727 2725 2723 2721 2719 2718 2716 2715 2715 2714 2713 2713 2712 2711 2710
2756 2756 2755 2755 2756 2757 2758 2760 2763 2765 2766 2766 2767 2768 2769 2770 2770 2770 2770 2770 2769 2769 2769 2769 2768 2767 2766 2763 2762 2761 2760 2758 2757 2756 2755 2754 2751 2749 2746 2743 2741 2739 2737 2735 2733 2732 2730 2729 2727 2726 2724 2723 2721 2719 2718 2717 2716 2715 2714 2714 2714 2713 2713
2752 2751 2751 2751 2752 2753 2754 2756 2758 2760 2762 2763 2764 2765 2766 2767 2767 2768 2768 2767 2767 2767 2767 2767 2767 2766 2764 2763 2762 2761 2760 2758 2757 2756 2756 2754 2752 2750 2747 2745 2742 2741 2739 2737 2735 2733 2731 2730 2728 2727 2725 2724 2722 2721 2719 2718 2717 2716 2716 2715 2715 2715 2715
2748 2747 2747 2747 2748 2749 2750 2752 2754 2756 2757 2759 2760 2762 2763 2764 2765 2765 2766 2765 2765 2766 2766 2766 2766 2765 2764 2762 2761 2761 2760 2759 2757 2756 2756 2755 2753 2750 2749 2747 2745 2743 2741 2739 2737 2735 2733 2731 2730 2728 2726 2725 2723 2722 2721 2719 2718 2717 2717 2716 2715 2715 2715
2745 2744 2744 2744 2744 2745 2747 2748 2750 2751 2753 2755 2757 2759 2760 2761 2762 2763 2764 2764 2764 2764 2764 2765 2765 2764 2763 2762 2761 2760 2759 2758 2757 2756 2755 2755 2753 2751 2750 2749 2746 2744 2743 2741 2739 2737 2735 2733 2731 2730 2728 2726 2725 2723 2721 2720 2719 2718 2717 2717 2716 2716 2716